Chillicothe, MO

3:29 AM CDT on October 23, 2019 (GMT -0500)
Chillicothe

Weather History for KCDJ - August, 2019

Change the Weather History Date:

Saturday, August 24, 2019

  Actual Average (WUND) Record (WUND)
Temperature  
Mean Temperature 69 °F -  
Max Temperature 77 °F - - (-1)
Min Temperature 63 °F - - (-1)
Cooling Degree Days 4    
Growing Degree Days 19 (Base 50)    
Moisture  
Dew Point 60 °F    
Average Humidity 72    
Maximum Humidity 81    
Minimum Humidity 60    
Precipitation  
Precipitation 0.00 in - - ()
Sea Level Pressure  
Sea Level Pressure 30.10 in    
Wind  
Wind Speed 6 mph (ESE)    
Max Wind Speed 13 mph    
Max Gust Speed 20 mph    
Averages and records for this station are not official NWS values.
T = Trace of Precipitation, MM = Missing Value Source: NWS Daily Summary

Daily Weather History Graph

Daily Weather History Graph

Search for Another Location

Airport or City:

Astronomy

Aug. 24, 2019 Rise Set
Actual Time 6:34 AM CDT 7:58 PM CDT
Civil Twilight 6:06 AM CDT 8:26 PM CDT
Nautical Twilight 5:32 AM CDT 9:00 PM CDT
Astronomical Twilight 4:56 AM CDT 9:35 PM CDT
Moon 12:28 AM CDT (8/24) 3:14 PM CDT (8/24)
Length of Visible Light 14h 19m
Length of Day
13h 23m
Last Quarter, 39% of the Moon is Illuminated
Aug 24
Last Quarter
Aug 30
New
Sep 5
First Quarter
Sep 13
Full
Sep 21
Last Quarter

Hourly Weather History & Observations

Time (CDT) Temp. Dew Point Humidity Pressure Visibility Wind Dir Wind Speed Gust Speed Precip Events Conditions
12:52 AM 68.0 °F 62.1 °F 81% 30.12 in - Variable 3.5 mph - N/A   Unknown
2:52 AM 66.0 °F 60.1 °F 81% 30.14 in - East 4.6 mph - N/A   Unknown
3:52 AM 64.9 °F 59.0 °F 81% 30.14 in - East 4.6 mph - N/A   Unknown
4:52 AM 64.0 °F 57.9 °F 80% 30.12 in - Variable 5.8 mph - N/A   Unknown
5:52 AM 63.0 °F 57.0 °F 81% 30.14 in - East 4.6 mph - N/A   Unknown
7:52 AM 63.0 °F 55.9 °F 78% 30.14 in - ESE 5.8 mph - N/A   Unknown
9:52 AM 69.1 °F 60.1 °F 73% 30.14 in - Variable 4.6 mph - N/A   Unknown
10:52 AM 71.1 °F 62.1 °F 73% 30.14 in - ESE 9.2 mph - N/A   Unknown
11:52 AM 73.0 °F 63.0 °F 71% 30.12 in - ESE 6.9 mph - N/A   Unknown
12:52 PM 75.0 °F 62.1 °F 64% 30.10 in - ESE 9.2 mph 19.6 mph N/A   Unknown
1:52 PM 75.0 °F 61.0 °F 62% 30.09 in - ESE 12.7 mph 18.4 mph N/A   Unknown
2:52 PM 75.0 °F 60.1 °F 60% 30.08 in - ESE 8.1 mph 19.6 mph N/A   Unknown
3:52 PM 75.0 °F 62.1 °F 64% 30.07 in - Variable 6.9 mph - N/A   Unknown
5:52 PM 73.9 °F 61.0 °F 64% 30.06 in - ESE 5.8 mph - N/A   Unknown
6:52 PM 73.0 °F 62.1 °F 68% 30.06 in - Variable 3.5 mph - N/A   Unknown
7:52 PM 72.0 °F 62.1 °F 71% 30.06 in - East 4.6 mph - N/A   Unknown
8:52 PM 71.1 °F 60.1 °F 68% 30.06 in - Variable 5.8 mph - N/A   Unknown
9:52 PM 70.0 °F 60.1 °F 71% 30.06 in - East 5.8 mph - N/A   Unknown
10:52 PM 70.0 °F 59.0 °F 68% 30.06 in - Variable 5.8 mph - N/A   Unknown